{"data":{"norad_id":46582,"epoch":"2026-05-25T02:24:03.788640Z","epoch_age_seconds":66486,"freshness":"FRESH","line1":"1 46582U 20070BC  26145.10004385  .00081998  00000+0  72293-3 0  9993","line2":"2 46582  53.0348 112.4955 0010952  56.8729 303.3336 15.67964250312160","mean_motion":15.6796425,"eccentricity":0.0010952,"inclination_deg":53.0348,"raan_deg":112.4955,"arg_perigee_deg":56.8729,"mean_anomaly_deg":303.3336,"bstar":0.00072293,"rev_number":31216,"period_min":91.838828595741,"perigee_km":357.34226848867,"apogee_km":372.1118379108,"semimajor_km":6742.8640531997,"source":"CELESTRAK","updated_at":"2026-05-25T13:38:16.513929Z"}}